Location: Laas
(43.4693°N, 0.3073°E)
Time: 20:10:33
(UTC+00:00)

ISS - Visible Passes

Search period start: 18 January 2021 00:00
Search period end: 28 January 2021 00:00
Orbit: 418 x 419 km, 51.6° (Epoch: 19 January)

Date Brightness Start Highest point End Pass type
(mag) Time Alt. Az. Time Alt. Az. Time Alt. Az.
18 Jan -1.4 17:40:46 10° SE 17:41:33 11° SE 17:42:21 10° ESE visible
18 Jan -1.6 19:14:28 10° SW 19:16:00 25° SW 19:16:00 25° SW visible
19 Jan -3.4 18:26:54 10° SW 18:30:08 47° SE 18:30:32 45° ESE visible
20 Jan -2.5 17:39:34 10° SSW 17:42:30 28° SE 17:44:59 13° E visible
20 Jan -1.8 19:15:57 10° W 19:17:57 29° WNW 19:17:57 29° WNW visible
21 Jan -3.6 18:28:02 10° WSW 18:31:23 66° NNW 18:32:19 42° NE visible
22 Jan -3.8 17:40:16 10° SW 17:43:37 79° SE 17:46:38 13° ENE visible
22 Jan -1.5 19:17:47 10° WNW 19:19:35 22° NW 19:19:35 22° NW visible
23 Jan -2.5 18:29:41 10° W 18:32:48 33° NNW 18:33:50 26° NNE visible
24 Jan -3.0 17:41:39 10° W 17:44:54 45° NNW 17:48:03 11° NE visible
24 Jan -1.2 19:19:40 10° WNW 19:21:00 17° NW 19:21:00 17° NW visible
25 Jan -2.0 18:31:33 10° WNW 18:34:18 22° N 18:35:10 20° NNE visible
26 Jan -2.2 17:43:24 10° WNW 17:46:19 26° NNW 17:49:14 10° NE visible
26 Jan -1.1 19:21:16 10° NW 19:22:16 15° NNW 19:22:16 15° NNW visible
27 Jan -1.9 18:33:17 10° NW 18:35:51 20° N 18:36:25 19° NNE visible
